Zurück zum Katalog

STARLINK-6101

AktivKommunikationVLEO
NORAD 56115·PAYLOAD·🇺🇸 United States

Gestartet Mar 29, 2023 von Cape Canaveral Space Force Station

Loading…

Nächste Überflüge (nächste 24 Stunden)

TLE

AktuellSource: CelesTrak SupGP

Epoche: Sep 14, 2026, 21:49 UTC

1 56115C 23046Y   26257.90951389 -.00026169  00000+0 -94798-3 0  2571
2 56115  43.0029 169.7408 0001454 261.9725 247.2428 15.27586344    14

Verfolge STARLINK-6101 in Echtzeit mit AllMySat

Download on the App Store